Location: T�bingen+AIT
(48.5342°N, 9.0700°E)
Time: 20:28:23
(UTC+02:00)

ALOS - Pass Details

Date: 14 September 2017
Orbit: 684 x 687 km, 97.8° (Epoch: 20 September)

Event Time Altitude Azimuth Distance (km) Brightness Sun altitude
Rises 20:38:31 0° 192° (SSW) 3,036 5.5 -10.6°
Reaches altitude 10° 20:40:58 10° 202° (SSW) 2,125 4.9 -11.0°
Maximum altitude 20:45:06 31° 265° (W) 1,189 4.2 -11.6°
Drops below altitude 10° 20:49:16 10° 328° (NNW) 2,139 5.6 -12.3°
Sets 20:51:45 0° 339° (NNW) 3,060 6.3 -12.7°
